EHI
0 0 0 0 0 0 0 0 0 0 0 0 0 0 0 0 0 0 0 0 0 0 0 0 0 0 0 0 0 0 0 0 0 0 0 0 0 0
0 0 0 0 0 0 0 0 0 0 0 0 0 0 0 0 0 0 0 0 0 0 0 0 0 0 0 0 0 0 0 0 0 0 0 0 0 0
0 0 0 0 0 0 0 0 0 0 0 0 0 0 0 0 0 0 0 0 0 0 0 0 0 0 0 0 0 0 0 0 0 0 0 0 0 0
0 0 0 0 0 0 0 0 0 0 0 0 0 0 0 0 0 0 0 0 0 0 0 0 0 0 0 0 0 0 0 0 0 0 0 0 0 0
0 0 0 0 0 0 0 0 0 0 0 0 0 0 0 0 0 0 0 0 0 0 0 0 0 0 0 0 0 0 0 0 0 0 0 0 0 0
0 0 0 0 0 0 0 0 0 0 0 0 0 0 0 0 0 0 0 0 0 0 0 0 0 0 0 0 0 0 0 0 0 0 0 0 0 0
0 0 0 0 0 0 0 0 0 0 0 0 0 0 0 0 0 0 0 0 0 0 0 0 0 0 0 0 0 0 0 0 0 0 0 0 0 0
0 0 0 0 0 0 0 0 0 0 0 0 0 0 0 0 0 0 0 0 0 0 0 0 0 0 0 0 0 0 0 0 0 0 0 0 0 0
0 0 0 0 0 0 0 0 0 0 0 0 0 0 0 0 0 0 0 0 0 0 0 0 0 0 0 0 0 0 0 0 0 0 0 0 0 0
0 0 0 0 0 0 0 0 0 0 0 0 0 0 0 0 0 0 0 0 0 0 0 0 0 0 0 0 0 0 0 0 0 0 0 0 0 0
0 0 0 0 0 0 0 0 0 0 0 0 0 0 0 0 0 0 0 0 0 0 0 0 0 0 0 0 0 0 0 0 0 0 0 0 0 0
0 0 0 0 0 0 0 0 0 0 0 0 0 0 0 0 0 0 0 0 0 0 0 0 0 0 0 0 0 0 0 0 0 0 0 0 0 0
0 0 0 0 0 0 0 0 0 0 0 0 0 0 0 0 0 0 0 0 0 0 0 0 0 0 0 0 0 0 0 0 0 0 0 0 0 0
0 0 0 0 0 0 0 0 0 0 0 0 0 0 0 0 0 0 0 0 0 0 0 0 0 0 0 0 0 0 0 0 0 0 0 0 0 0
0 0 0 0 0 0 0 0 0 0 0 0 0 0 0 0 0 0 0 0 0 0 0 0 0 0 0 0 0 0 0 0 0 0 0 0 0 0
0 0 0 0 0 0 0 0 0 0 0 0 0 0 0 0 0 0 0 0 0 0 0 0 0 0 0 0 0 0 0 0 0 0 0 0 0 0
0 0 0 0 0 0 0 0 0 0 0 0 0 0 0 0 0 0 0 0 0 0 0 0 0 0 0 0 0 0 0 0 0 0 0 0 0 0
0 0 0 0 0 0 0 0 0 0 0 0 0 0 0 0 0 0 0 0 0 0 0 0 0 0 0 0 0 0 0 0 0 0 0 0 0 0
0 0 0 0 0 0 0 0 0 0 0 0 0 0 0 0 0 0 0 0 0 0 0 0 0 0 0 0 0 0 0 0 0 0 0 0 0 0
0 0 0 0 0 0 0 0 0 0 0 0 0 0 0 0 0 0 0 0 0 0 0 0 0 0 0 0 0 0 0 0 0 0 0 0 0 0
0 0 0 0 0 0 0 0 0 0 0 0 0 0 0 0 0 0 0 0 0 0 0 0 0 0 0 0 0 0 0 0 0 0 0 0 0 0
0 0 0 0 0 0 0 0 0 0 0 0 0 0 0 0 0 0 0 0 0 0 0 0 0 0 0 0 0 0 0 0 0 0 0 0 0 0
0 0 0 0 0 0 0 0 0 0 0 0 0 0 0 0 0 0 0 0 0 0 0 0 0 0 0 0 0 0 0 0 0 0 0 0 0 0
Wind_Speed
0 1 1 1 1 1 1 3 4 3 2 1 1 1 1 2 3 3 3 6 8 8 8 8 9 9 9 9 9 9 8 8 8 8 8 7 6 5
0 1 1 1 0 1 1 1 2 3 2 1 1 1 1 2 4 3 3 6 7 7 8 8 8 8 8 9 8 8 8 8 7 7 7 6 5 5
1 1 1 1 0 0 1 1 1 2 3 1 1 2 2 3 3 3 3 3 3 6 7 7 7 7 7 7 7 7 6 6 6 6 6 5 5 4
2 2 1 1 1 0 1 2 2 2 3 3 1 1 2 3 3 4 3 3 2 4 5 5 5 5 5 5 5 5 5 4 4 5 5 4 4 4
2 2 1 1 1 0 1 2 2 2 3 4 3 2 2 2 3 3 3 2 2 3 3 3 3 4 3 4 4 4 4 4 4 4 4 5 4 5
2 2 1 1 1 1 2 2 3 4 4 5 4 3 2 2 3 3 2 1 1 1 1 1 2 2 3 3 4 5 5 5 5 5 5 5 5 5
3 3 3 3 2 2 2 3 4 4 4 5 4 3 2 2 2 2 2 1 1 0 0 1 0 1 2 3 5 6 7 7 7 7 7 6 7 7
2 3 3 4 5 6 6 5 5 6 6 4 3 4 3 3 2 3 3 2 0 1 1 1 1 2 3 3 6 8 8 9 9 9 9 9 9 9
2 3 3 4 4 4 6 7 6 5 5 5 5 4 4 4 5 4 3 2 2 2 2 1 1 2 3 4 8 9 10 10 10 10 10 11 11 11
3 2 3 3 4 4 5 5 4 4 2 3 4 4 4 5 5 5 4 2 0 0 2 1 1 2 2 3 6 9 10 11 11 11 12 12 12 12
3 3 3 3 4 5 5 5 4 3 3 4 4 4 5 6 5 4 3 3 1 1 1 2 1 1 2 3 4 7 9 11 11 12 12 12 13 11
3 3 4 4 4 5 4 4 4 2 2 3 4 4 3 2 3 4 4 3 2 1 2 2 1 0 2 3 2 3 4 7 10 12 13 13 12 6
2 2 2 3 4 4 4 3 3 3 3 3 2 2 1 0 0 2 3 4 3 3 3 3 2 1 1 3 3 3 3 3 3 5 9 13 13 8
1 0 1 2 4 4 3 3 4 4 3 2 2 1 0 1 2 2 2 3 4 5 4 4 3 3 2 2 4 3 3 3 3 4 5 7 10 12
0 1 1 3 3 3 2 3 3 2 2 2 1 1 2 2 1 1 1 1 2 3 4 4 4 3 3 3 3 3 3 4 3 4 4 4 5 4
2 2 3 3 3 2 1 1 1 1 2 1 1 1 1 1 1 1 1 1 2 4 4 3 5 5 3 4 4 4 4 4 4 4 4 5 5 5
1 2 2 2 2 2 1 1 1 0 0 1 1 1 1 1 1 1 1 0 1 2 4 4 2 3 5 4 3 5 5 5 5 5 3 4 6 6
2 2 1 1 1 1 1 1 1 1 1 1 1 1 1 1 1 1 0 1 2 2 3 3 2 2 3 3 7 6 5 5 5 4 3 3 7 7
1 1 1 1 2 2 1 1 2 2 1 1 1 2 1 1 1 1 1 1 2 3 3 2 1 1 1 5 7 6 5 5 4 4 4 4 6 7
0 1 2 2 2 2 2 2 2 2 1 2 2 2 2 1 1 2 2 2 2 2 3 3 3 3 4 5 5 5 6 5 4 4 5 4 5 8
2 3 3 3 3 3 3 3 2 2 2 2 2 2 2 2 2 3 3 4 3 2 4 5 6 6 3 1 3 5 6 7 8 6 4 4 5 4
4 4 4 3 3 3 3 2 2 2 3 3 3 3 3 3 3 4 3 3 3 4 4 5 5 2 1 2 5 6 6 7 7 9 10 9 5 5
5 4 4 4 3 3 3 3 4 3 3 3 3 3 3 3 3 3 4 4 4 4 4 4 3 2 3 3 4 5 8 7 5 5 7 10 13 15
Wind_Direction
272 273 251 250 209 172 169 170 163 175 197 182 123 60 85 78 74 75 80 83 86 85 89 93 96 99 105 107 111 115 119 123 128 133 133 135 137 141
306 326 305 280 244 124 157 176 176 165 170 167 154 121 107 98 93 88 84 93 92 94 96 97 98 100 106 112 115 118 120 126 134 138 144 149 151 156
347 1 311 275 213 201 162 153 149 142 149 138 90 96 97 110 97 83 80 77 88 95 100 102 104 105 107 112 117 122 128 137 142 146 150 151 157 164
359 7 351 18 34 218 165 153 156 151 143 145 124 107 103 128 113 100 89 86 84 88 93 102 109 113 118 124 128 133 139 148 155 159 160 168 182 196
15 17 11 51 32 75 123 134 136 128 123 136 130 109 104 116 102 91 87 71 89 105 103 111 125 135 144 151 156 164 171 178 186 192 193 199 209 221
21 23 31 61 121 127 123 126 121 115 118 123 123 117 109 105 108 112 91 52 56 88 100 139 154 171 185 191 196 200 204 207 210 212 217 223 229 236
29 31 41 53 85 105 129 134 131 129 126 127 131 123 129 136 145 138 122 89 9 341 48 289 209 245 241 228 224 220 219 220 222 225 231 237 241 245
42 31 44 47 67 81 99 118 137 142 142 138 139 146 155 153 138 137 130 116 275 251 154 269 187 239 249 234 229 226 227 228 230 232 236 241 245 248
51 46 60 60 62 76 82 86 90 108 137 147 150 159 164 171 153 143 155 164 205 207 135 277 261 248 250 241 233 231 233 235 237 239 242 246 249 252
57 65 73 60 67 82 85 77 71 69 101 136 158 170 171 166 160 157 163 150 355 297 140 197 269 257 265 258 250 241 240 241 243 244 247 250 252 255
50 64 78 79 81 92 91 86 71 50 65 107 133 143 149 152 148 125 121 109 64 297 183 171 252 284 292 275 261 248 245 246 247 249 251 253 255 260
41 48 63 82 90 99 105 104 99 81 84 86 83 86 104 132 159 158 157 148 157 250 234 167 220 141 316 290 274 264 254 253 252 252 253 255 256 253
55 31 22 69 88 97 106 114 127 118 100 95 86 73 57 38 234 199 181 167 168 222 217 164 188 183 205 288 299 270 245 255 262 259 256 257 256 237
102 39 11 72 83 91 97 108 105 97 91 87 83 74 253 265 260 246 218 208 208 216 214 173 184 188 186 256 282 290 281 253 243 257 262 268 264 252
62 98 77 72 72 69 72 98 100 96 98 102 135 227 236 241 263 299 300 275 270 248 226 204 194 193 183 210 248 266 289 286 256 250 263 260 260 257
33 33 42 43 55 61 49 45 61 127 145 168 213 249 282 299 262 239 261 326 338 309 290 237 211 195 212 228 227 258 256 260 275 266 262 270 266 251
35 36 31 22 18 12 5 339 323 350 165 204 199 233 275 280 275 248 214 178 233 277 298 308 278 217 219 217 246 259 263 266 262 265 267 277 276 265
74 50 14 346 312 294 292 302 295 244 226 209 196 207 225 244 276 294 226 207 245 262 269 281 318 351 341 282 223 240 262 262 269 267 240 255 280 280
56 348 317 296 280 272 257 244 247 241 215 195 208 228 229 235 245 273 272 259 265 268 269 264 242 182 271 288 286 227 218 257 271 278 261 241 258 273
287 277 278 273 263 254 247 237 242 247 225 219 224 231 229 226 246 263 265 256 265 278 290 286 254 224 218 241 265 279 244 228 244 264 273 271 265 273
277 272 259 253 249 245 239 234 224 224 226 222 233 237 234 225 246 256 259 266 262 264 272 273 266 261 234 247 293 287 280 253 227 231 254 276 287 294
260 262 258 244 240 239 236 227 229 238 239 234 239 243 240 229 239 253 257 260 259 255 261 271 286 297 226 244 268 275 284 293 284 263 241 224 227 252
249 245 245 244 238 228 222 225 228 236 234 232 237 240 237 237 242 245 252 254 256 264 271 281 292 282 258 252 264 274 281 287 291 299 289 271 255 252